Вернуться в каталог

STARLINK-37510

АктивенСвязьVLEO
NORAD 69520·PAYLOAD·🇺🇸 United States

Запущен Jun 12, 2026 с Cape Canaveral Space Force Station

Loading…

Ближайшие Пролёты (ближайшие 24 часа)

TLE

СвежийSource: CelesTrak SupGP

Эпоха: Sep 15, 2026, 03:52 UTC

1 69520C 26133N   26258.16159722 -.00036278  00000+0 -10721-2 0  2581
2 69520  53.1562 254.6901 0001285  87.6218 296.6389 15.34401359    10

Отслеживайте STARLINK-37510 в реальном времени с AllMySat

Download on the App Store